STARLINK-11146, 60729

Orbit data source: Space-Track

STARLINK-11146, 60729 is a payload satellite owned by SpaceX/Seattle (US) in LEO that was launched on Wed, 28 Aug 2024 UTC via an FALCON 9 launch vehicle from the Air Force Eastern Test Range (AFETR). Payload-class satellites include a variety of spacecraft equipped with specific instruments for various scientific and technological missions. These include communications satellites like Starlink; space stations such as the ISS; scientific satellites like the Hubble; Earth observation satellites from companies like Planet Labs, Umbra, and HawkEye 360; GPS; miniature CubeSats for education and research; and military/defense satellites.

Loading next visibility...
Identifier
60729, 2024-152K
Orbit
LEO
Country
Flag of USUS
Related business
Manufacturer
SpaceX/Seattle
Mission
Operational Commercial Communications
Bus & Motor
STARLINK V2MD, Unknown motor
Mass
960 kg wet, ~910 kg dry
Launch date (UTC)
2024-08-28 (2 years ago)
Launch vehicle
FALCON 9
Launch site
Air Force Eastern Test Range (AFETR)
Object type
Payload
Rocket body
Debris
Shape & HBR
Box + 2 Pan, 18.1 m
Radar Cross Section
36.964 m², Large (>1 m²)

Expand to show TLE details & history
Last TLE update: 19 hours ago

TLE from 19 hours ago
0 STARLINK-11146
1 60729U 24152K   26140.67390649 -.00001768  00000-0 -97371-5 0  9991
2 60729  53.1585 121.1931 0001100  86.3315 273.7828 15.69713586100277
Epoch: 2026-05-20T16:10Z
TLE epoch observation values (Epoch: 2026-05-20T16:10:25.520Z)
Latitude
-0.00009°
Longitude
0.25662°
Altitude
360.583 km
Speed
7.694 km/s
True Right ascension
08h 04m 46s
True Declination
0° 00' 00"
Sunlit
Object was in daylight at epoch
Visualization orbit readout
Latitude
Unknown
Longitude
Unknown
Altitude
Unknown
Speed
Unknown
Apparent Right ascension
Unknown
Apparent Declination
Unknown
Sunlit
N/A
Visualization observer readout
Local Sidereal Time
19:36:22
Azimuth
Unknown
Elevation
Unknown
Doppler factor
Unknown
Orbital elements
Apogee altitude
360.719 km
Perigee altitude
359.236 km
Semi-major axis
6,738.114 km
Eccentricity
0.00011
Inclination
53.1585°
RAAN
121.1931°
Arg. of periapsis
86.3315°
True anomaly
273.77022°
Mean anomaly
273.7828°
Eccentric anomaly
273.77651°
Mean motion
3.92406 °/min
Orbital period
91.74 mins
BSTAR
-0.0000097371
Loading maneuver chart data...
Computing Atmospheric mass density...
Loading historical data...
Loading historical data...
Loading historical data...
Loading historical data...
Loading historical data...
Loading historical data...
Loading historical data...

Documentation

Showing up to 5 results
|